Location: ?????
(55.8833°N, 37.6500°E)
Time: 17:52:42
(UTC+00:00)

STARLINK-1056 - Pass Details

Date: 15 July 2020
Orbit: 549 x 550 km, 53.0° (Epoch: 08 August)

Event Time Altitude Azimuth Distance (km) Brightness Sun altitude
Rises 19:21:35 0° 280° (W) 2,722 7.8 -7.7°
Reaches altitude 10° 19:24:20 10° 262° (W) 1,825 6.6 -7.9°
Maximum altitude 19:27:13 19° 217° (SW) 1,363 5.4 -8.1°
Drops below altitude 10° 19:30:06 10° 173° (S) 1,818 5.7 -8.3°
Enters shadow 19:30:16 - 171° (S) 1,867 5.7 -8.3°
